TimeEDT,TemperatureF,Dew PointF,Humidity,Sea Level PressureIn,VisibilityMPH,Wind Direction,Wind SpeedMPH,Gust SpeedMPH,PrecipitationIn,Events,Conditions,WindDirDegrees,DateUTC
12:53 AM,48.0,44.1,86,30.12,10.0,NNW,3.5,-,N/A,,Mostly Cloudy,330,2012-10-08 04:53:00
1:53 AM,46.0,44.1,93,30.12,10.0,Calm,Calm,-,N/A,,Clear,0,2012-10-08 05:53:00
2:53 AM,44.1,43.0,96,30.12,10.0,WNW,4.6,-,N/A,,Clear,300,2012-10-08 06:53:00
3:53 AM,44.1,42.1,93,30.13,10.0,NW,3.5,-,N/A,,Clear,310,2012-10-08 07:53:00
4:53 AM,44.1,42.1,93,30.15,10.0,Calm,Calm,-,N/A,,Clear,0,2012-10-08 08:53:00
5:53 AM,43.0,41.0,93,30.15,10.0,West,3.5,-,N/A,,Clear,280,2012-10-08 09:53:00
6:53 AM,42.1,41.0,96,30.19,10.0,Calm,Calm,-,N/A,,Clear,0,2012-10-08 10:53:00
7:53 AM,45.0,42.1,90,30.22,10.0,NNW,3.5,-,N/A,,Clear,330,2012-10-08 11:53:00
8:53 AM,48.9,44.1,83,30.27,10.0,NW,4.6,-,N/A,,Clear,320,2012-10-08 12:53:00
9:03 AM,48.2,44.6,87,30.25,8.0,NNW,6.9,-,N/A,,Partly Cloudy,330,2012-10-08 13:03:00
9:53 AM,52.0,44.1,74,30.26,10.0,NNW,6.9,-,N/A,,Clear,340,2012-10-08 13:53:00
10:53 AM,52.0,42.1,69,30.25,10.0,NE,3.5,-,N/A,,Partly Cloudy,40,2012-10-08 14:53:00
11:53 AM,53.1,42.1,66,30.26,10.0,Variable,4.6,-,N/A,,Partly Cloudy,0,2012-10-08 15:53:00
12:53 PM,54.0,41.0,62,30.26,10.0,Calm,Calm,-,N/A,,Partly Cloudy,0,2012-10-08 16:53:00
1:53 PM,53.1,42.1,66,30.27,10.0,South,3.5,-,N/A,,Mostly Cloudy,170,2012-10-08 17:53:00
2:53 PM,53.1,42.1,66,30.25,10.0,ESE,3.5,-,N/A,,Mostly Cloudy,120,2012-10-08 18:53:00
3:53 PM,53.1,42.1,66,30.25,10.0,SSE,5.8,-,N/A,,Overcast,150,2012-10-08 19:53:00
4:53 PM,53.1,42.1,66,30.26,10.0,Calm,Calm,-,N/A,,Overcast,0,2012-10-08 20:53:00
5:53 PM,53.1,42.1,66,30.29,10.0,Calm,Calm,-,N/A,,Overcast,0,2012-10-08 21:53:00
6:53 PM,52.0,43.0,71,30.27,10.0,Calm,Calm,-,N/A,,Overcast,0,2012-10-08 22:53:00
7:53 PM,52.0,45.0,77,30.27,10.0,East,4.6,-,N/A,,Overcast,100,2012-10-08 23:53:00
8:53 PM,51.1,44.1,77,30.26,10.0,East,3.5,-,N/A,,Mostly Cloudy,80,2012-10-09 00:53:00
10:53 PM,48.9,44.1,83,30.26,10.0,NNE,4.6,-,N/A,,Mostly Cloudy,30,2012-10-09 02:53:00
11:53 PM,50.0,44.1,80,30.23,10.0,ENE,3.5,-,N/A,,Overcast,70,2012-10-09 03:53:00